This demonstration page uses our WeatherBlox Daily Observations layout. Learn more.

Left ArrowRight Arrow

Hourly Observations for May 18, 2020

Temp ( °F °C ) Dew Point ( °F °C ) Humidity (%) Winds ( mph kmh ) Pressure ( in mb ) Visibility ( mi km ) Precip ( " mm )
12:51 am 00:51 Clear 75 23.9 32 0 21 21 NNW 10 17 29.76 1008 10 16.0934 0 0
1:51 am 01:51 Clear 72 22.2 29 -1.7 20 20 N 7 11 29.75 1008 10 16.0934 0 0
2:51 am 02:51 Clear 63 17.2 30 -1.1 29 29 E 5 7 29.77 1008 10 16.0934 0 0
3:51 am 03:51 Clear 61 16.1 29 -1.7 30 30 SE 5 7 29.78 1008 10 16.0934 0 0
4:51 am 04:51 Clear 61 16.1 29 -1.7 30 30 E 6 9 29.79 1009 10 16.0934 0 0
5:51 am 05:51 Sunny 60 15.6 28 -2.2 30 30 ESE 3 6 29.82 1010 10 16.0934 0 0
6:51 am 06:51 Sunny 68 20 31 -0.6 25 25 SSE 3 6 29.83 1010 10 16.0934 0 0
7:51 am 07:51 Sunny 75 23.9 33 0.6 22 22 Calm 29.83 1010 10 16.0934 0 0
8:51 am 08:51 Sunny 83 28.3 33 0.6 17 17 N 5 7 29.83 1010 10 16.0934 0 0
9:51 am 09:51 Sunny 87 30.6 30 -1.1 13 13 Calm 29.83 1010 10 16.0934 0 0
10:51 am 10:51 Sunny 90 32.2 27 -2.8 10 10 SW 8 13 29.82 1010 10 16.0934 0 0
11:51 am 11:51 Sunny 93 33.9 28 -2.2 10 10 VRB 6 9 29.78 1009 10 16.0934 0 0
12:51 pm 12:51 Sunny 96 35.6 27 -2.8 8 8 N 9 15 29.75 1007 10 16.0934 0 0
1:51 pm 13:51 Sunny 97 36.1 28 -2.2 9 9 W 8 13 29.73 1007 10 16.0934 0 0
2:51 pm 14:51 Sunny 98 36.7 29 -1.7 9 9 Calm 29.71 1006 10 16.0934 0 0
3:51 pm 15:51 Sunny 98 36.7 29 -1.7 9 9 WSW 5 7 29.7 1006 10 16.0934 0 0
4:51 pm 16:51 Sunny 99 37.2 29 -1.7 8 8 W 15 24 29.68 1005 10 16.0934 0 0
5:51 pm 17:51 Sunny 97 36.1 30 -1.1 9 9 VRB 7 11 29.67 1005 10 16.0934 0 0
6:51 pm 18:51 Sunny 93 33.9 30 -1.1 10 10 W 9 15 29.67 1005 10 16.0934 0 0
7:51 pm 19:51 Clear 88 31.1 29 -1.7 12 12 WNW 12 19 29.69 1005 10 16.0934 0 0
8:51 pm 20:51 Clear 86 30 27 -2.8 12 12 WNW 12 19 29.69 1006 10 16.0934 0 0
9:51 pm 21:51 Clear 82 27.8 24 -4.4 12 12 NW 12 19 29.72 1007 10 16.0934 0 0
10:51 pm 22:51 Clear 79 26.1 25 -3.9 14 14 NW 9 15 29.72 1007 10 16.0934 0 0
11:51 pm 23:51 Clear 74 23.3 26 -3.3 17 17 NNW 8 13 29.74 1007 10 16.0934 0 0

Powered by AerisWeather